Danville, VA

3:05 AM EST on November 17, 2019 (GMT -0500)
Danville Regional

Weather History for KDAN - October, 2019

Change the Weather History Date:

Wednesday, October 23, 2019

  Actual Average Record
Temperature  
Mean Temperature 54 °F 57 °F  
Max Temperature 68 °F 68 °F 88 °F (1941)
Min Temperature 41 °F 46 °F 25 °F (1974)
Degree Days  
Heating Degree Days 10 8  
Month to date heating degree days 85 128  
Since 1 July heating degree days 89 156  
Cooling Degree Days 0 1  
Month to date cooling degree days 73 30  
Year to date cooling degree days 1763 1433  
Growing Degree Days 4 (Base 50)    
Moisture  
Dew Point 41 °F    
Average Humidity 71    
Maximum Humidity 100    
Minimum Humidity 28    
Precipitation  
Precipitation 0.00 in 0.11 in 3.80 in (1990)
Month to date precipitation 4.44 2.65  
Year to date precipitation 34.43 36.90  
Snow  
Snow 0.00 in - - ()
Month to date snowfall 0.0  
Since 1 July snowfall 0.0  
Since 1 September snowfall 0.0  
Snow Depth 0.00 in    
Sea Level Pressure  
Sea Level Pressure 30.10 in    
Wind  
Wind Speed 5 mph ()    
Max Wind Speed 15 mph    
Max Gust Speed 19 mph    
Visibility 10.0 miles    
Events      
T = Trace of Precipitation, MM = Missing Value Source: Averaged Metar Reports

Daily Weather History Graph

Daily Weather History Graph

Search for Another Location

Airport or City:

Astronomy

Oct. 23, 2019 Rise Set
Actual Time 7:31 AM EDT 6:31 PM EDT
Civil Twilight 7:05 AM EDT 6:57 PM EDT
Nautical Twilight 6:35 AM EDT 7:27 PM EDT
Astronomical Twilight 6:05 AM EDT 7:57 PM EDT
Moon 2:00 AM EDT (10/23) 4:09 PM EDT (10/23)
Length of Visible Light 11h 51m
Length of Day
10h 59m
Waning Crescent, 27% of the Moon is Illuminated
Oct 23
Waning Crescent
Oct 27
New
Nov 4
First Quarter
Nov 12
Full
Nov 19
Last Quarter

Hourly Weather History & Observations

Time (EDT) Temp. Windchill Dew Point Humidity Pressure Visibility Wind Dir Wind Speed Gust Speed Precip Events Conditions
12:53 AM 51.1 °F - 50.0 °F 96% 29.91 in 10.0 mi WSW 5.8 mph - N/A   Clear
1:53 AM 50.0 °F - 48.0 °F 93% 29.93 in 10.0 mi West 6.9 mph - N/A   Clear
2:53 AM 51.1 °F - 46.9 °F 86% 29.95 in 10.0 mi West 8.1 mph - N/A   Clear
3:53 AM 50.0 °F - 45.0 °F 83% 29.97 in 10.0 mi West 5.8 mph - N/A   Clear
4:53 AM 48.0 °F - 44.1 °F 86% 29.99 in 10.0 mi West 4.6 mph - N/A   Clear
5:53 AM 44.1 °F 42.5 °F 43.0 °F 96% 30.02 in 10.0 mi WSW 3.5 mph - N/A   Clear
6:53 AM 44.1 °F 41.5 °F 43.0 °F 96% 30.04 in 10.0 mi SW 4.6 mph - N/A   Clear
7:53 AM 43.0 °F 39.5 °F 42.1 °F 97% 30.08 in 10.0 mi SW 5.8 mph - N/A   Clear
8:53 AM 46.9 °F - 45.0 °F 93% 30.10 in 10.0 mi SSW 3.5 mph - N/A   Clear
9:53 AM 55.0 °F - 48.0 °F 77% 30.12 in 10.0 mi West 5.8 mph - N/A   Clear
10:53 AM 59.0 °F - 44.1 °F 58% 30.13 in 10.0 mi West 6.9 mph - N/A   Clear
11:53 AM 62.1 °F - 39.0 °F 43% 30.14 in 10.0 mi WNW 6.9 mph - N/A   Clear
12:53 PM 64.9 °F - 36.0 °F 34% 30.12 in 10.0 mi NNW 10.4 mph - N/A   Clear
1:53 PM 66.0 °F - 32.0 °F 28% 30.11 in 10.0 mi West 9.2 mph - N/A   Clear
2:53 PM 66.9 °F - 34.0 °F 30% 30.10 in 10.0 mi Variable 5.8 mph - N/A   Clear
3:53 PM 68.0 °F - 35.1 °F 30% 30.12 in 10.0 mi WNW 9.2 mph - N/A   Clear
4:53 PM 66.9 °F - 33.1 °F 28% 30.12 in 10.0 mi WNW 5.8 mph - N/A   Clear
5:53 PM 64.9 °F - 34.0 °F 32% 30.14 in 10.0 mi WNW 3.5 mph - N/A   Clear
6:53 PM 52.0 °F - 41.0 °F 66% 30.16 in 10.0 mi Calm Calm - N/A   Clear
7:53 PM 48.0 °F - 41.0 °F 77% 30.19 in 10.0 mi Calm Calm - N/A   Clear
8:53 PM 46.0 °F - 42.1 °F 86% 30.20 in 10.0 mi Calm Calm - N/A   Clear
9:53 PM 44.1 °F - 42.1 °F 93% 30.22 in 10.0 mi Calm Calm - N/A   Clear
10:53 PM 42.1 °F - 41.0 °F 96% 30.23 in 10.0 mi Calm Calm - N/A   Clear
11:53 PM 42.1 °F 40.2 °F 39.9 °F 92% 30.23 in 10.0 mi SSW 3.5 mph - N/A   Clear